Weather History for Texarkana, AR

Change the Weather History Date:

Monday, December 31, 2012

  Actual Average Record
Temperature  
Mean Temperature 44 °F 44 °F  
Max Temperature 49 °F 53 °F 82 °F (1951)
Min Temperature 39 °F 34 °F 13 °F (1983)
Degree Days  
Heating Degree Days 21 22  
Month to date heating degree days 452 608  
Since 1 July heating degree days 898 1067  
Cooling Degree Days 0 0  
Month to date cooling degree days 17 3  
Year to date cooling degree days 2808 2207  
Moisture  
Dew Point 40 °F    
Average Humidity 79    
Maximum Humidity 100    
Minimum Humidity 57    
Precipitation  
Precipitation 0.59 in 0.13 in 2.01 in (1933)
Month to date precipitation 4.46 5.05  
Year to date precipitation 32.07 49.65  
Snow  
Snow 0.00 in - - ()
Month to date snowfall 2.0  
Since 1 July snowfall 2.0  
Snow Depth 0.00 in    
Sea Level Pressure  
Sea Level Pressure 30.07 in    
Wind  
Wind Speed 5 mph (East)    
Max Wind Speed 21 mph    
Max Gust Speed 24 mph    
Visibility 4 miles    
Events Fog , Rain    
T = Trace of Precipitation, MM = Missing Value Source: NWS Daily Summary

Daily Weather History Graph

Daily Weather History Graph

Search for Another Location

Airport:

Trip Planner

Search our weather history database for the weather conditions in past years. The results will help you decide how hot, cold, wet, or windy it might be!

Date:

Astronomy

Dec. 31, 2012 Rise Set
Actual Time 7:19 AM CST 5:18 PM CST
Civil Twilight 6:52 AM CST 5:46 PM CST
Nautical Twilight 6:21 AM CST 6:17 PM CST
Astronomical Twilight 5:51 AM CST 6:47 PM CST
Moon 8:39 PM CST (12/31) 9:11 AM CST (12/31)
Length of Visible Light 10h 53m
Length of Day
9h 58m
Waning Gibbous, 90% of the Moon is Illuminated
Dec 31
Waning Gibbous
Jan 4
Last Quarter
Jan 11
New
Jan 18
First Quarter
Jan 26
Full

Hourly Weather History & Observations

Time (CST) Temp. Windchill Dew Point Humidity Pressure Visibility Wind Dir Wind Speed Gust Speed Precip Events Conditions
12:53 AM 39.9 °F 33.9 °F 28.0 °F 63% 30.29 in 10.0 mi SSE 9.2 mph - N/A   Partly Cloudy
1:53 AM 39.0 °F 34.8 °F 28.0 °F 65% 30.27 in 10.0 mi SE 5.8 mph - N/A   Partly Cloudy
2:53 AM 39.9 °F 35.8 °F 28.0 °F 63% 30.27 in 10.0 mi SSE 5.8 mph - N/A   Overcast
3:53 AM 39.9 °F 37.8 °F 28.9 °F 65% 30.25 in 10.0 mi ESE 3.5 mph - N/A   Overcast
4:53 AM 39.0 °F 36.8 °F 28.9 °F 67% 30.24 in 10.0 mi ESE 3.5 mph - N/A   Overcast
5:53 AM 39.9 °F 37.8 °F 30.0 °F 68% 30.22 in 10.0 mi ESE 3.5 mph - N/A   Overcast
6:53 AM 39.0 °F 36.8 °F 30.9 °F 73% 30.19 in 10.0 mi East 3.5 mph - N/A   Overcast
7:53 AM 39.9 °F 36.7 °F 30.0 °F 68% 30.18 in 10.0 mi SE 4.6 mph - N/A   Overcast
8:46 AM 42.8 °F 38.6 °F 28.4 °F 57% 30.16 in 10.0 mi SE 6.9 mph - N/A   Overcast
8:53 AM 42.1 °F 36.6 °F 28.9 °F 60% 30.17 in 10.0 mi SE 9.2 mph - N/A   Overcast
9:37 AM 42.8 °F 38.6 °F 32.0 °F 66% 30.16 in 5.0 mi SE 6.9 mph - 0.00 in Rain Light Rain
9:48 AM 41.0 °F 38.0 °F 35.6 °F 81% 30.16 in 2.5 mi SE 4.6 mph - 0.00 in Rain Light Rain
9:53 AM 41.0 °F 37.1 °F 36.0 °F 82% 30.16 in 5.0 mi SE 5.8 mph - 0.00 in Rain Light Rain
10:29 AM 39.2 °F 37.0 °F 37.4 °F 93% 30.15 in 2.5 mi ESE 3.5 mph - 0.00 in Rain Light Rain
10:36 AM 39.2 °F 37.0 °F 37.4 °F 93% 30.15 in 4.0 mi ESE 3.5 mph - 0.00 in   Overcast
10:53 AM 41.0 °F 38.0 °F 37.9 °F 89% 30.14 in 9.0 mi ESE 4.6 mph - 0.00 in Rain Light Rain
11:53 AM 41.0 °F - 39.0 °F 93% 30.10 in 2.5 mi Calm Calm - 0.02 in Rain Rain
12:05 PM 41.0 °F - 39.2 °F 93% 30.08 in 1.8 mi Calm Calm - 0.04 in Rain Rain
12:15 PM 41.0 °F - 39.2 °F 93% 30.08 in 2.0 mi Calm Calm - 0.06 in Rain Rain
12:39 PM 42.8 °F 41.1 °F 41.0 °F 93% 30.05 in 3.0 mi East 3.5 mph - 0.08 in Rain Light Rain
12:53 PM 42.1 °F - 42.1 °F 100% 30.04 in 3.0 mi Calm Calm - 0.09 in Rain Light Rain
1:01 PM 42.8 °F 41.1 °F 42.8 °F 100% 30.03 in 2.5 mi ESE 3.5 mph - 0.01 in Rain Light Rain
1:08 PM 42.8 °F 41.1 °F 42.8 °F 100% 30.03 in 4.0 mi SE 3.5 mph - 0.01 in Rain Light Rain
1:24 PM 44.6 °F 41.4 °F 42.8 °F 93% 30.01 in 2.5 mi SE 5.8 mph - 0.04 in Rain Light Rain
1:33 PM 44.6 °F 42.2 °F 42.8 °F 93% 30.01 in 3.0 mi ESE 4.6 mph - 0.04 in Rain Light Rain
1:53 PM 45.0 °F 40.1 °F 44.1 °F 97% 30.00 in 4.0 mi SE 9.2 mph - 0.05 in Rain Light Rain
2:02 PM 46.4 °F 42.9 °F 44.6 °F 93% 29.99 in 1.8 mi SE 6.9 mph - 0.04 in Rain Rain
2:12 PM 46.4 °F 42.9 °F 44.6 °F 93% 29.98 in 3.0 mi SE 6.9 mph - 0.05 in Rain Rain
2:16 PM 46.4 °F 42.4 °F 44.6 °F 93% 29.98 in 2.5 mi SE 8.1 mph - 0.06 in Rain Rain
2:35 PM 46.4 °F 41.9 °F 46.4 °F 100% 29.96 in 3.0 mi SE 9.2 mph - 0.09 in Rain Light Rain
2:53 PM 46.9 °F - 46.9 °F 100% 29.96 in 4.0 mi SSE 10.4 mph - 0.09 in Rain Light Rain
3:03 PM 48.2 °F - 46.4 °F 93% 29.95 in 5.0 mi SSE 10.4 mph - 0.01 in Rain Light Rain
3:22 PM 48.2 °F - 46.4 °F 93% 29.99 in 1.5 mi WNW 10.4 mph 24.2 mph 0.07 in Rain Rain
3:28 PM 48.2 °F - 46.4 °F 93% 30.01 in 0.8 mi WNW 15.0 mph 18.4 mph 0.09 in Rain Rain
3:33 PM 48.2 °F - 46.4 °F 93% 30.02 in 1.5 mi West 11.5 mph 18.4 mph 0.11 in Rain Rain
3:53 PM 46.0 °F 41.0 °F 46.0 °F 100% 30.02 in 1.8 mi NW 10.4 mph - 0.14 in Rain Rain
3:57 PM 46.4 °F 41.5 °F 44.6 °F 93% 30.02 in 3.0 mi NW 10.4 mph - 0.00 in Rain Light Rain
4:43 PM 44.6 °F 42.2 °F 42.8 °F 93% 30.03 in 1.8 mi NNW 4.6 mph - 0.04 in Rain Rain
4:53 PM 44.1 °F 41.5 °F 43.0 °F 96% 30.03 in 2.5 mi NNW 4.6 mph - 0.05 in Rain Light Rain
5:05 PM 44.6 °F 43.1 °F 42.8 °F 93% 30.02 in 1.5 mi NNE 3.5 mph - 0.02 in Rain Light Rain
5:12 PM 44.6 °F 43.1 °F 42.8 °F 93% 30.02 in 2.5 mi NNE 3.5 mph - 0.04 in Rain Light Rain
5:29 PM 44.6 °F 43.1 °F 42.8 °F 93% 30.02 in 3.0 mi NNE 3.5 mph - 0.05 in Rain Light Rain
5:45 PM 42.8 °F 41.1 °F 42.8 °F 100% 30.02 in 2.5 mi ENE 3.5 mph - 0.08 in Rain Rain
5:53 PM 43.0 °F - 43.0 °F 100% 30.02 in 2.0 mi Calm Calm - 0.10 in Rain Rain
6:01 PM 42.8 °F - 42.8 °F 100% 30.01 in 2.5 mi Calm Calm - 0.02 in Rain Light Rain
6:16 PM 42.8 °F 41.1 °F 42.8 °F 100% 30.01 in 3.0 mi East 3.5 mph - 0.02 in Rain Light Rain
6:28 PM 42.8 °F - 42.8 °F 100% 30.01 in 2.5 mi Calm Calm - 0.02 in Rain Light Rain
6:53 PM 43.0 °F - 43.0 °F 100% 30.01 in 2.5 mi Calm Calm - 0.03 in Rain Light Rain
7:10 PM 42.8 °F - 42.8 °F 100% 30.01 in 3.0 mi Calm Calm - 0.00 in Rain Light Rain
7:22 PM 42.8 °F 40.1 °F 42.8 °F 100% 30.00 in 3.0 mi NE 4.6 mph - 0.01 in Rain Light Rain
7:30 PM 42.8 °F 41.1 °F 42.8 °F 100% 30.00 in 2.5 mi ENE 3.5 mph - 0.01 in Rain Light Rain
7:38 PM 42.8 °F 40.1 °F 42.8 °F 100% 30.01 in 3.0 mi NNE 4.6 mph - 0.01 in   Overcast
8:10 PM 42.8 °F 41.1 °F 42.8 °F 100% 30.02 in 2.0 mi North 3.5 mph - 0.00 in Rain Light Rain
8:53 PM 43.0 °F 40.3 °F 43.0 °F 100% 30.02 in 1.8 mi North 4.6 mph - 0.01 in Rain Light Rain
9:00 PM 42.8 °F 41.1 °F 42.8 °F 100% 30.02 in 2.5 mi North 3.5 mph - 0.00 in   Overcast
9:18 PM 42.8 °F - 42.8 °F 100% 30.03 in 3.0 mi Calm Calm - 0.00 in   Overcast
9:53 PM 43.0 °F 41.3 °F 43.0 °F 100% 30.04 in 3.0 mi North 3.5 mph - 0.00 in   Overcast
10:10 PM 42.8 °F 41.1 °F 42.8 °F 100% 30.04 in 1.8 mi NNW 3.5 mph - N/A   Overcast
10:29 PM 42.8 °F 40.1 °F 42.8 °F 100% 30.05 in 0.8 mi NNW 4.6 mph - 0.00 in   Overcast
10:53 PM 43.0 °F 40.3 °F 43.0 °F 100% 30.04 in 0.5 mi North 4.6 mph - 0.00 in Fog Fog
11:53 PM 43.0 °F 40.3 °F 43.0 °F 100% 30.04 in 0.5 mi NNE 4.6 mph - N/A Fog Fog